Location: Scenic
(43.7797°N, 102.5549°W)
Time: 14:01:53
(UTC-07:00)

Amateur Radio Satellites - All Passes

Search period start: 20 November 2017 13:31
Search period end: 21 November 2017 13:31
Location: Scenic, 43.7797°N, 102.5549°W

Satellite Date Start Highest point End Downlink Frequencies (MHz)
Time Altitude Azimuth
ITAMSAT 1 20 Nov 13:32:37 13:36:41 24° 63° (ENE) 13:40:46 435.822/435.867
UKube-1 20 Nov 13:34:46 13:38:53 41° 99° (E) 13:42:58 .
O/OREOS (USA 219) 20 Nov 13:35:43 13:40:18 79° 294° (WNW) 13:44:56 437.305
Gurwin Techsat 1B 20 Nov 13:39:08 13:43:51 32° 264° (W) 13:48:37 435.225
VELOX 1 20 Nov 13:39:12 13:42:58 27° 293° (WNW) 13:46:43 145.980
M-CUBED/EXP-1 PRIME 20 Nov 13:55:31 13:58:47 36° 257° (WSW) 14:02:20 437.505
AO-7 20 Nov 14:07:57 14:16:13 80° 69° (ENE) 14:24:33 .
BEESAT 20 Nov 14:11:32 14:14:21 15° 91° (E) 14:17:10 436.000
ITUPSAT 1 20 Nov 14:20:16 14:23:36 19° 92° (E) 14:26:54 437.325
DX 1 20 Nov 14:27:04 14:31:02 35° 292° (WNW) 14:35:00 434.975-435.025
AO-85 20 Nov 14:30:52 14:33:14 14° 251° (WSW) 14:35:40 145.980
DOVE 4 20 Nov 14:31:55 14:34:35 14° 59° (ENE) 14:37:19 437.250
50 SAT 20 Nov 14:35:46 14:37:38 15° 294° (WNW) 14:39:28 437.505
MOZHAYETS 4 20 Nov 14:39:38 14:43:54 38° 98° (E) 14:48:10
CUBESAT XI-V 20 Nov 14:50:49 14:52:47 12° 89° (E) 14:54:45 437.345
ITAMSAT 1 20 Nov 15:10:46 15:15:49 50° 260° (W) 15:20:55 435.822/435.867
UKube-1 20 Nov 15:11:27 15:14:37 20° 296° (WNW) 15:17:46 .
O/OREOS (USA 219) 20 Nov 15:18:57 15:20:31 11° 314° (NW) 15:22:05 437.305
YUBILEINY 20 Nov 15:19:58 15:27:48 34° 68° (ENE) 15:35:34 435.215
NO-84 20 Nov 15:22:35 15:26:17 76° 139° (SE) 15:30:18 435.350 FM
XW-2C 20 Nov 15:47:30 15:48:09 10° 62° (ENE) 15:48:49 145.795 - 145.815
BEESAT 20 Nov 15:47:50 15:52:31 60° 288° (WNW) 15:57:11 436.000
LilacSat-2 20 Nov 15:47:52 15:49:11 12° 63° (ENE) 15:50:29 437.200
ITUPSAT 1 20 Nov 15:57:05 16:01:41 50° 289° (WNW) 16:06:16 437.325
XW-2F 20 Nov 15:57:47 15:59:28 13° 64° (ENE) 16:01:10 145.980 - 146.000
AO-7 20 Nov 16:03:37 16:09:49 23° 268° (W) 16:16:04 .
DOVE 4 20 Nov 16:06:26 16:11:27 85° 256° (WSW) 16:16:44 437.250
MOZHAYETS 4 20 Nov 16:17:16 16:20:50 23° 295° (WNW) 16:24:24
KAITUO 1B 20 Nov 16:25:41 16:28:26 20° 67° (ENE) 16:31:13 145.475/437.950
CUBESAT XI-V 20 Nov 16:25:58 16:30:39 73° 285° (WNW) 16:35:19 437.345
RS-15 20 Nov 16:36:06 16:43:56 20° 97° (E) 16:51:43 29.354- 29.394
KKS-1 20 Nov 16:36:55 16:40:59 33° 97° (E) 16:45:00 437.445
CUTE-I 20 Nov 16:37:39 16:42:39 41° 68° (ENE) 16:47:41 437.470
XW-2D 20 Nov 16:37:57 16:41:27 40° 72° (ENE) 16:44:58 145.860 - 145.880
HO-68 20 Nov 16:49:43 16:55:56 33° 60° (ENE) 17:02:11 435.675
XW-2B 20 Nov 16:52:34 16:56:13 58° 74° (ENE) 16:59:54 145.730 - 145.750
NO-84 20 Nov 17:00:41 17:04:01 26° 339° (NNW) 17:07:32 435.350 FM
STARS 20 Nov 17:03:22 17:07:02 26° 95° (E) 17:10:41 437.465
CUTE 1.7 + AOD 2 20 Nov 17:07:55 17:11:10 22° 66° (ENE) 17:14:27 437.475
NUDT-PHONESAT 20 Nov 17:10:31 17:14:07 67° 76° (ENE) 17:17:46 437.300
YUBILEINY 20 Nov 17:16:27 17:25:04 59° 269° (W) 17:33:38 435.215
XW-2C 20 Nov 17:18:06 17:21:47 65° 259° (W) 17:25:31 145.795 - 145.815
LilacSat-2 20 Nov 17:19:15 17:22:57 57° 260° (W) 17:26:41 437.200
UWE-3 20 Nov 17:21:15 17:22:48 12° 61° (ENE) 17:24:21 435.000/436.395/437.385
XW-2F 20 Nov 17:29:32 17:33:08 49° 260° (W) 17:36:46 145.980 - 146.000
SEEDS 20 Nov 17:39:16 17:42:52 29° 69° (ENE) 17:46:30 437.485
DOVE 4 20 Nov 17:48:53 17:49:56 11° 275° (W) 17:51:00 437.250
AAUSAT CUBESAT 2 20 Nov 17:49:05 17:51:45 17° 65° (ENE) 17:54:28 437.432
CUBEBUG 2 20 Nov 17:56:10 18:00:32 45° 72° (ENE) 18:04:47 437.445
KAITUO 1B 20 Nov 17:59:04 18:02:15 28° 264° (W) 18:05:29 145.475/437.950
AO-73 20 Nov 18:03:31 18:05:55 15° 63° (ENE) 18:08:16 145.935
XW-2D 20 Nov 18:13:43 18:15:48 14° 269° (W) 18:17:54 145.860 - 145.880
KKS-1 20 Nov 18:13:44 18:17:23 25° 294° (WNW) 18:21:01 437.445
CUTE-I 20 Nov 18:18:16 18:22:48 28° 265° (W) 18:27:22 437.470
Oscar 11 20 Nov 18:20:30 18:23:01 15° 63° (ENE) 18:25:33 .
XW-2B 20 Nov 18:30:41 18:30:45 10° 271° (W) 18:30:49 145.730 - 145.750
HO-68 20 Nov 18:36:21 18:43:21 54° 259° (W) 18:50:25 435.675
STARS 20 Nov 18:39:29 18:43:23 31° 292° (WNW) 18:47:14 437.465
NO-84 20 Nov 18:39:44 18:42:30 17° 0° (N) 18:45:20 435.350 FM
RS-15 20 Nov 18:42:04 18:54:20 77° 119° (ESE) 19:06:32 29.354- 29.394
XW-2A 20 Nov 18:42:22 18:45:41 75° 76° (ENE) 18:49:00 145.665 - 145.685
STRAND 1 20 Nov 18:42:57 18:47:30 32° 96° (E) 18:52:01 437.568
CUTE 1.7 + AOD 2 20 Nov 18:43:00 18:46:49 33° 264° (W) 18:50:39 437.475
ZACube-1 20 Nov 18:46:12 18:50:19 45° 72° (ENE) 18:54:22 437.345
UWE-3 20 Nov 18:54:12 18:58:40 79° 259° (WSW) 19:03:02 435.000/436.395/437.385
SEEDS 20 Nov 19:15:06 19:18:32 25° 266° (W) 19:22:00 437.485
YUBILEINY 20 Nov 19:18:46 19:19:48 10° 290° (WNW) 19:20:50 435.215
FO-29 20 Nov 19:22:54 19:29:26 28° 90° (E) 19:35:40 435.910
AAUSAT CUBESAT 2 20 Nov 19:22:55 19:26:51 44° 261° (W) 19:30:51 437.432
CUBEBUG 2 20 Nov 19:34:03 19:37:19 19° 268° (W) 19:40:32 437.445
AO-73 20 Nov 19:37:29 19:41:43 56° 260° (W) 19:45:53 145.935
Max Valier Satellite 20 Nov 19:39:12 19:40:57 13° 64° (ENE) 19:42:42 145.860
Oscar 11 20 Nov 19:54:31 19:58:43 55° 260° (W) 20:02:57 .
DELFI C3 20 Nov 19:58:52 20:02:26 33° 70° (ENE) 20:06:02 145.870
ISS 20 Nov 20:08:09 20:10:29 18° 134° (SE) 20:12:48 437.550
NO-84 20 Nov 20:17:22 20:20:58 26° 21° (NNE) 20:24:37 435.350 FM
STRAND 1 20 Nov 20:22:06 20:26:40 34° 293° (WNW) 20:31:12 437.568
ZACube-1 20 Nov 20:23:58 20:26:48 17° 268° (W) 20:29:37 437.345
UNISAT 6 20 Nov 20:26:41 20:27:49 11° 88° (E) 20:28:55 437.425
TIGRISAT 20 Nov 20:31:06 20:32:19 11° 89° (E) 20:33:32 435.000
RS-15 20 Nov 20:56:25 21:07:59 43° 325° (NW) 21:19:22 29.354- 29.394
nSIGHT-1 20 Nov 21:00:55 21:04:07 69° 145° (SE) 21:07:19 .
ESTCUBE 1 20 Nov 21:04:27 21:06:28 13° 60° (ENE) 21:08:30 437.505/2401.250
FO-29 20 Nov 21:07:09 21:14:57 66° 289° (WNW) 21:22:21 435.910
EO-88 20 Nov 21:10:10 21:13:46 69° 260° (W) 21:17:23 145.990 - 145.960
Max Valier Satellite 20 Nov 21:10:51 21:14:22 46° 261° (W) 21:17:54 145.860
PRISM 20 Nov 21:33:23 21:36:28 20° 94° (E) 21:39:32 437.425
DELFI C3 20 Nov 21:34:19 21:37:15 20° 267° (W) 21:40:12 145.870
LO-87 20 Nov 21:36:31 21:39:39 28° 70° (ENE) 21:42:47 145.935 - 145.965
ISS 20 Nov 21:43:25 21:46:40 63° 331° (NNW) 21:49:55 437.550
SO-50 20 Nov 21:47:25 21:51:52 78° 124° (SE) 21:56:23 436.795
NO-84 20 Nov 21:54:29 21:58:46 84° 218° (SW) 22:03:01 435.350 FM
UNISAT 6 20 Nov 22:00:45 22:05:01 69° 285° (WNW) 22:09:14 437.425
TIGRISAT 20 Nov 22:05:14 22:09:30 67° 285° (WNW) 22:13:41 435.000
O/OREOS (USA 219) 20 Nov 22:05:38 22:09:35 28° 57° (ENE) 22:13:29 437.305
AIST 2D 20 Nov 22:09:39 22:11:38 14° 92° (E) 22:13:36 435.315
SPROUT 20 Nov 22:26:05 22:29:18 21° 66° (ENE) 22:32:31 437.525
QB50P2 20 Nov 22:34:15 22:35:38 11° 89° (E) 22:37:02 145.880/145.840
nSIGHT-1 20 Nov 22:37:47 22:40:34 27° 344° (NNW) 22:43:22 .
ESTCUBE 1 20 Nov 22:38:12 22:42:40 74° 259° (WSW) 22:47:09 437.505/2401.250
FO-29 20 Nov 22:54:05 22:58:29 16° 309° (NW) 23:02:49 435.910
VELOX 1 20 Nov 23:00:54 23:04:50 32° 68° (ENE) 23:08:48 145.980
PRISM 20 Nov 23:08:00 23:11:51 36° 290° (WNW) 23:15:39 437.425
LO-87 20 Nov 23:10:28 23:13:04 19° 266° (W) 23:15:41 145.935 - 145.965
RS-15 20 Nov 23:14:57 23:24:50 27° 358° (N) 23:34:25 29.354- 29.394
ISS 20 Nov 23:20:58 23:23:36 22° 350° (N) 23:26:15 437.550
DUCHIFAT 1 20 Nov 23:22:42 23:26:16 27° 96° (E) 23:29:48 145.980
EO-79 20 Nov 23:29:16 23:33:15 41° 98° (E) 23:37:13 145.935-145.965
SO-50 20 Nov 23:29:47 23:32:52 18° 323° (NW) 23:36:00 436.795
50 SAT 20 Nov 23:32:23 23:33:52 13° 65° (ENE) 23:35:22 437.505
NANOSAT C BR1 20 Nov 23:32:47 23:36:44 40° 98° (E) 23:40:39 145.865
NO-84 20 Nov 23:33:27 23:35:32 13° 237° (WSW) 23:37:37 435.350 FM
AIST 2D 20 Nov 23:41:41 23:44:56 35° 288° (WNW) 23:48:10 435.315
POLYITAN 1 20 Nov 23:44:22 23:48:32 62° 101° (E) 23:52:39 437.675
O/OREOS (USA 219) 20 Nov 23:44:57 23:49:00 32° 255° (WSW) 23:53:00 437.305
DX 1 20 Nov 23:47:58 23:51:30 25° 66° (ENE) 23:55:03 434.975-435.025
PCSat 20 Nov 23:55:04 00:00:21 56° 115° (ESE) 00:05:39 145.827
SPROUT 21 Nov 00:00:57 00:04:57 38° 262° (W) 00:08:57 437.525
QB50P2 21 Nov 00:07:41 00:11:51 65° 287° (WNW) 00:16:00 145.880/145.840
nSIGHT-1 21 Nov 00:15:05 00:17:31 20° 4° (N) 00:19:58 .
Gurwin Techsat 1B 21 Nov 00:16:04 00:17:48 11° 87° (E) 00:19:30 435.225
BUGSAT 1 21 Nov 00:16:45 00:20:08 25° 95° (E) 00:23:28 437.445
UKube-1 21 Nov 00:30:07 00:34:10 41° 70° (ENE) 00:38:15 .
VELOX 1 21 Nov 00:37:35 00:41:17 26° 265° (W) 00:45:00 145.980
ISS 21 Nov 00:58:09 01:00:51 23° 11° (N) 01:03:31 437.550
DUCHIFAT 1 21 Nov 00:58:21 01:01:51 27° 292° (WNW) 01:05:21 145.980
50 SAT 21 Nov 01:02:38 01:05:38 36° 261° (W) 01:08:40 437.505
EO-79 21 Nov 01:05:47 01:08:42 19° 295° (WNW) 01:11:37 145.935-145.965
NANOSAT C BR1 21 Nov 01:09:11 01:12:09 19° 295° (WNW) 01:15:06 145.865
BEESAT 21 Nov 01:18:50 01:22:30 22° 64° (ENE) 01:26:08 436.000
POLYITAN 1 21 Nov 01:21:45 01:23:48 13° 298° (WNW) 01:25:50 437.675
DX 1 21 Nov 01:23:34 01:27:31 33° 263° (W) 01:31:30 434.975-435.025
ITUPSAT 1 21 Nov 01:27:59 01:31:56 26° 65° (ENE) 01:35:54 437.325
Oscar 19 21 Nov 01:30:01 01:35:12 78° 103° (ESE) 01:40:23 437.125/150
RS-15 21 Nov 01:30:40 01:41:48 40° 32° (NNE) 01:52:23 29.354- 29.394
M-CUBED/EXP-1 PRIME 21 Nov 01:32:55 01:35:05 13° 95° (E) 01:37:16 437.505
PCSat 21 Nov 01:39:33 01:44:05 26° 315° (NW) 01:48:38 145.827
MOZHAYETS 4 21 Nov 01:42:30 01:46:48 43° 71° (ENE) 01:51:07
nSIGHT-1 21 Nov 01:51:17 01:54:21 40° 24° (NNE) 01:57:23 .
BUGSAT 1 21 Nov 01:52:02 01:55:26 27° 292° (WNW) 01:58:48 437.445
Gurwin Techsat 1B 21 Nov 01:53:07 01:58:28 89° 96° (E) 02:03:47 435.225
CUBESAT XI-V 21 Nov 01:55:19 01:57:56 15° 61° (ENE) 02:00:34 437.345
UKube-1 21 Nov 02:07:16 02:10:21 19° 267° (W) 02:13:27 .
AO-7 21 Nov 02:09:03 02:15:25 23° 92° (E) 02:21:44 .
BEESAT 2 21 Nov 02:19:07 02:21:14 14° 110° (ESE) 02:23:21 435.950
ISS 21 Nov 02:34:28 02:37:44 72° 31° (NNE) 02:40:58 437.550
BEESAT 3 21 Nov 02:43:26 02:47:25 87° 124° (SE) 02:51:26 437.485
BEESAT 21 Nov 02:55:25 02:59:58 44° 261° (W) 03:04:33 436.000
ITUPSAT 1 21 Nov 03:05:11 03:09:35 37° 262° (W) 03:14:01 437.325
M-CUBED/EXP-1 PRIME 21 Nov 03:05:18 03:09:50 73° 291° (WNW) 03:14:27 437.505
AO-85 21 Nov 03:06:19 03:08:43 16° 110° (ESE) 03:11:10 145.980
Oscar 19 21 Nov 03:10:56 03:13:53 15° 301° (WNW) 03:16:49 437.125/150
MOZHAYETS 4 21 Nov 03:20:48 03:24:08 20° 267° (W) 03:27:29
ITAMSAT 1 21 Nov 03:22:03 03:27:09 52° 101° (E) 03:32:11 435.822/435.867
nSIGHT-1 21 Nov 03:27:39 03:30:31 30° 221° (SW) 03:33:21 .
CUBESAT XI-V 21 Nov 03:30:13 03:34:46 64° 258° (WSW) 03:39:22 437.345
Gurwin Techsat 1B 21 Nov 03:34:56 03:37:39 14° 303° (WNW) 03:40:22 435.225
KKS-1 21 Nov 03:35:54 03:40:01 37° 69° (ENE) 03:44:09 437.445
RS-15 21 Nov 03:43:41 03:55:35 81° 240° (WSW) 04:06:48 29.354- 29.394
BEESAT 2 21 Nov 03:54:29 03:58:27 59° 307° (NW) 04:02:29 435.950
AO-7 21 Nov 04:00:38 04:08:59 80° 291° (WNW) 04:17:19 .
STARS 21 Nov 04:00:58 04:04:44 28° 67° (ENE) 04:08:30 437.465
DOVE 4 21 Nov 04:04:40 04:09:01 26° 92° (E) 04:13:10 437.250
ISS 21 Nov 04:11:48 04:13:51 16° 227° (SW) 04:15:53 437.550
YUBILEINY 21 Nov 04:23:02 04:30:41 36° 84° (E) 04:38:23 435.215
BEESAT 3 21 Nov 04:23:20 04:25:31 14° 323° (NW) 04:27:44 437.485
SO-50 21 Nov 04:37:42 04:40:51 18° 37° (NE) 04:44:03 436.795
M-CUBED/EXP-1 PRIME 21 Nov 04:42:41 04:43:27 10° 307° (NW) 04:44:13 437.505
AO-85 21 Nov 04:44:53 04:48:40 48° 309° (NW) 04:52:38 145.980
XW-2C 21 Nov 04:50:55 04:52:19 12° 90° (E) 04:53:44 145.795 - 145.815
LilacSat-2 21 Nov 04:52:18 04:54:13 13° 91° (E) 04:56:09 437.200
CUTE-I 21 Nov 04:54:42 04:57:32 14° 89° (E) 05:00:21 437.470
XW-2F 21 Nov 05:01:04 05:03:13 14° 91° (E) 05:05:22 145.980 - 146.000
ITAMSAT 1 21 Nov 05:02:16 05:06:14 23° 298° (WNW) 05:10:11 435.822/435.867
KKS-1 21 Nov 05:13:08 05:16:39 23° 266° (W) 05:20:13 437.445
KAITUO 1B 21 Nov 05:28:23 05:31:26 23° 95° (E) 05:34:30 145.475/437.950
BEESAT 2 21 Nov 05:36:05 05:37:03 11° 327° (NNW) 05:38:00 435.950
STARS 21 Nov 05:37:05 05:40:58 30° 264° (W) 05:44:53 437.465
FO-29 21 Nov 05:38:32 05:42:23 16° 50° (NE) 05:46:24 435.910
DOVE 4 21 Nov 05:41:56 05:46:47 40° 291° (WNW) 05:51:25 437.250
XW-2D 21 Nov 05:42:38 05:46:21 50° 100° (E) 05:50:03 145.860 - 145.880
AO-7 21 Nov 05:54:49 06:00:31 21° 312° (NW) 06:06:14 .
XW-2B 21 Nov 05:57:24 06:01:12 73° 102° (ESE) 06:05:00 145.730 - 145.750
RS-15 21 Nov 05:58:23 06:05:55 20° 263° (W) 06:13:16 29.354- 29.394
STRAND 1 21 Nov 05:59:49 06:04:49 52° 70° (ENE) 06:09:48 437.568
HO-68 21 Nov 06:02:52 06:08:56 29° 94° (E) 06:14:58 435.675
NUDT-PHONESAT 21 Nov 06:12:38 06:16:21 78° 102° (ESE) 06:20:04 437.300
SO-50 21 Nov 06:17:15 06:21:54 84° 239° (WSW) 06:26:37 436.795
YUBILEINY 21 Nov 06:18:37 06:27:07 54° 285° (WNW) 06:35:44 435.215
XW-2C 21 Nov 06:23:05 06:26:47 52° 287° (WNW) 06:30:30 145.795 - 145.815
LilacSat-2 21 Nov 06:25:03 06:28:44 46° 287° (WNW) 06:32:25 437.200
CUTE 1.7 + AOD 2 21 Nov 06:25:58 06:29:54 35° 97° (E) 06:33:50 437.475
CUTE-I 21 Nov 06:32:47 06:38:10 77° 286° (WNW) 06:43:30 437.470
XW-2F 21 Nov 06:33:56 06:37:31 41° 288° (WNW) 06:41:06 145.980 - 146.000
UWE-3 21 Nov 06:43:18 06:46:06 17° 92° (E) 06:48:54 435.000/436.395/437.385
SEEDS 21 Nov 06:56:23 07:00:30 47° 99° (E) 07:04:36 437.485
PCSat 21 Nov 06:59:35 07:02:20 14° 34° (NE) 07:05:05 145.827
KAITUO 1B 21 Nov 07:02:13 07:05:21 25° 291° (WNW) 07:08:29 145.475/437.950
AAUSAT CUBESAT 2 21 Nov 07:03:39 07:07:07 25° 94° (E) 07:10:34 437.432
XW-2D 21 Nov 07:18:13 07:20:06 13° 296° (WNW) 07:21:58 145.860 - 145.880
FO-29 21 Nov 07:19:19 07:25:56 69° 71° (ENE) 07:33:22 435.910
CUBEBUG 2 21 Nov 07:21:51 07:26:02 85° 102° (ESE) 07:30:10 437.445
AO-73 21 Nov 07:24:16 07:27:35 23° 94° (E) 07:30:54 145.935
UNISAT 6 21 Nov 07:26:15 07:28:32 14° 62° (ENE) 07:30:46 437.425
TIGRISAT 21 Nov 07:30:34 07:32:52 14° 62° (ENE) 07:35:09 435.000
XW-2A 21 Nov 07:34:52 07:38:13 64° 102° (ESE) 07:41:33 145.665 - 145.685
STRAND 1 21 Nov 07:40:29 07:44:17 20° 268° (W) 07:48:05 437.568
Oscar 11 21 Nov 07:40:37 07:44:08 24° 94° (E) 07:47:40 .
HO-68 21 Nov 07:50:00 07:57:02 58° 293° (WNW) 08:04:00 435.675
SO-50 21 Nov 08:01:10 08:01:37 10° 253° (WSW) 08:02:05 436.795
CUTE 1.7 + AOD 2 21 Nov 08:02:14 08:05:32 22° 294° (WNW) 08:08:49 437.475
ZACube-1 21 Nov 08:08:47 08:12:57 82° 105° (ESE) 08:17:06 437.345
CUTE-I 21 Nov 08:15:18 08:17:18 12° 305° (NW) 08:19:19 437.470
UWE-3 21 Nov 08:18:52 08:22:45 40° 289° (WNW) 08:26:37 435.000/436.395/437.385
PRISM 21 Nov 08:24:03 08:26:50 18° 64° (ENE) 08:29:39 437.425
YUBILEINY 21 Nov 08:24:03 08:26:25 11° 310° (NW) 08:28:47 435.215
SEEDS 21 Nov 08:33:02 08:35:49 17° 296° (WNW) 08:38:36 437.485
AAUSAT CUBESAT 2 21 Nov 08:38:54 08:42:32 30° 291° (WNW) 08:46:11 437.432
Max Valier Satellite 21 Nov 08:40:21 08:42:15 14° 91° (E) 08:44:10 145.860
PCSat 21 Nov 08:41:31 08:46:54 60° 55° (NE) 08:52:15 145.827
UNISAT 6 21 Nov 09:00:08 09:04:42 70° 258° (WSW) 09:09:11 437.425
AO-73 21 Nov 09:00:11 09:03:51 31° 290° (WNW) 09:07:30 145.935
TIGRISAT 21 Nov 09:04:28 09:09:02 69° 259° (WSW) 09:13:30 435.000
FALCONSAT 3 21 Nov 09:06:22 09:07:14 11° 158° (SSE) 09:08:06 435.103
FO-29 21 Nov 09:06:28 09:11:40 24° 272° (W) 09:17:21 435.910
DELFI C3 21 Nov 09:08:24 09:12:15 44° 99° (E) 09:16:04 145.870
Oscar 11 21 Nov 09:16:27 09:20:18 32° 291° (WNW) 09:24:09 .
BEESAT 3 21 Nov 09:22:57 09:24:32 12° 35° (NE) 09:26:05 437.485
QB50P2 21 Nov 09:28:29 09:29:57 12° 60° (ENE) 09:31:25 145.880/145.840
HO-68 21 Nov 09:40:21 09:43:16 13° 313° (NW) 09:46:12 435.675
ZACube-1 21 Nov 09:48:28 09:48:35 10° 300° (WNW) 09:48:41 437.345
PRISM 21 Nov 09:57:51 10:01:46 43° 261° (W) 10:05:45 437.425
EO-88 21 Nov 10:10:41 10:14:18 63° 286° (WNW) 10:17:55 145.990 - 145.960
Max Valier Satellite 21 Nov 10:12:49 10:16:16 40° 288° (WNW) 10:19:43 145.860
DUCHIFAT 1 21 Nov 10:15:37 10:19:01 24° 67° (ENE) 10:22:26 145.980
AIST 2D 21 Nov 10:16:18 10:19:44 89° 252° (WSW) 10:23:14 435.315
EO-79 21 Nov 10:22:34 10:26:28 37° 70° (ENE) 10:30:22 145.935-145.965
NANOSAT C BR1 21 Nov 10:25:45 10:29:36 35° 70° (ENE) 10:33:28 145.865
PCSat 21 Nov 10:25:52 10:29:49 21° 254° (WSW) 10:33:46 145.827
ESTCUBE 1 21 Nov 10:29:51 10:33:18 21° 93° (E) 10:36:43 437.505/2401.250
BEESAT 2 21 Nov 10:33:55 10:36:37 17° 39° (NE) 10:39:18 435.950
LO-87 21 Nov 10:34:53 10:37:59 28° 96° (E) 10:41:03 145.935 - 145.965
POLYITAN 1 21 Nov 10:37:40 10:41:47 53° 73° (ENE) 10:45:56 437.675
FALCONSAT 3 21 Nov 10:42:46 10:45:35 21° 173° (S) 10:48:25 435.103
DELFI C3 21 Nov 10:44:09 10:46:38 16° 296° (WNW) 10:49:06 145.870
BEESAT 3 21 Nov 10:58:49 11:02:46 75° 54° (NE) 11:06:39 437.485
QB50P2 21 Nov 11:00:53 11:05:07 76° 258° (WSW) 11:09:22 145.880/145.840
BUGSAT 1 21 Nov 11:07:34 11:10:51 23° 67° (ENE) 11:14:08 437.445
Oscar 19 21 Nov 11:11:07 11:14:31 18° 60° (ENE) 11:17:55 437.125/150
AO-85 21 Nov 11:33:45 11:37:46 29° 45° (NE) 11:42:03 145.980
Gurwin Techsat 1B 21 Nov 11:37:14 11:41:20 23° 62° (ENE) 11:45:27 435.225
SPROUT 21 Nov 11:44:59 11:48:46 30° 96° (E) 11:52:31 437.525
DUCHIFAT 1 21 Nov 11:50:48 11:54:33 31° 264° (W) 11:58:18 145.980
EO-79 21 Nov 11:59:09 12:02:20 20° 267° (W) 12:05:31 145.935-145.965
NANOSAT C BR1 21 Nov 12:02:10 12:05:23 21° 266° (W) 12:08:37 145.865
ESTCUBE 1 21 Nov 12:06:00 12:10:15 40° 290° (WNW) 12:14:28 437.505/2401.250
LO-87 21 Nov 12:08:40 12:11:12 19° 293° (WNW) 12:13:42 145.935 - 145.965
BEESAT 2 21 Nov 12:10:45 12:14:46 66° 238° (WSW) 12:18:42 435.950
POLYITAN 1 21 Nov 12:15:37 12:17:53 14° 269° (W) 12:20:10 437.675
O/OREOS (USA 219) 21 Nov 12:19:36 12:23:17 24° 102° (ESE) 12:26:58 437.305
M-CUBED/EXP-1 PRIME 21 Nov 12:19:42 12:22:00 16° 57° (ENE) 12:24:24 437.505
FALCONSAT 3 21 Nov 12:21:18 12:24:05 20° 188° (S) 12:26:51 435.103
VELOX 1 21 Nov 12:25:08 12:29:31 52° 100° (E) 12:33:50 145.980
BEESAT 3 21 Nov 12:39:14 12:39:40 10° 252° (WSW) 12:40:06 437.485
BUGSAT 1 21 Nov 12:42:14 12:46:02 33° 263° (W) 12:49:48 437.445
Oscar 19 21 Nov 12:48:15 12:53:19 64° 258° (WSW) 12:58:25 437.125/150
ITAMSAT 1 21 Nov 13:05:09 13:07:42 14° 57° (ENE) 13:10:15 435.822/435.867
AO-7 21 Nov 13:09:18 13:16:44 39° 58° (ENE) 13:24:12 .
DX 1 21 Nov 13:09:55 13:13:58 36° 98° (E) 13:17:59 434.975-435.025
AO-85 21 Nov 13:13:51 13:18:20 44° 242° (WSW) 13:23:07 145.980
Gurwin Techsat 1B 21 Nov 13:15:46 13:20:55 51° 260° (W) 13:26:07 435.225
SPROUT 21 Nov 13:21:03 13:24:31 25° 293° (WNW) 13:27:57 437.525
